Regional Weather Roundup
Issued by NWS Boston, MA

Home | Current Version | Previous Version | Text Only | Print | Product List | Glossary On
Versions: 1 2 3 4 5 6 7 8 9 10 11 12 13 14 15 16 17 18 19 20 21 22 23 24 25 26 27 28 29 30 31 32 33 34 35 36 37 38 39 40 41 42 43 44 45 46 47 48
000
ASUS41 KBOX 040810
RWRBOX

REGIONAL WEATHER ROUNDUP
NATIONAL WEATHER SERVICE TAUNTON MA
300 AM EST WED MAR 04 2015

NOTE:  "FAIR" INDICATES FEW OR NO CLOUDS BELOW 12,000 FEET WITH NO
SIGNIFICANT WEATHER AND/OR OBSTRUCTIONS TO VISIBILITY.  THE FOLLOWING
OBSERVATION LOCATIONS DO NOT REPORT PRESENT WEATHER...PROVINCETOWN...
SMITHFIELD...BLOCK ISLAND...KEENE...AND OXFORD.

MAZALL-040900-
EASTERN MASSACHUSETTS

CITY           SKY/WX    TMP DP  RH WIND       PRES   REMARKS
BOSTON         CLOUDY    36  34  92 SW8       29.66F WCI  30
BEVERLY        CLOUDY    35  32  88 SW8       29.64F WCI  29
LAWRENCE       CLOUDY    33  32  96 SW8       29.65F WCI  26
BEDFORD        CLOUDY    34  33  96 SW10      29.64F WCI  26
BLUE HILL        N/A     36  36 100 SW20G29   29.63F WCI  25
NORWOOD        CLOUDY    38  36  92 SW10G18   29.66F WCI  31
MARSHFIELD     CLOUDY    45  43  93 SW15G26   29.67S
PLYMOUTH       LGT RAIN  42  40  92 SW16G31   29.67F
TAUNTON        LGT RAIN  42  40  92 SW10G21   29.68F
NEW BEDFORD    LGT RAIN  42  41  96 SW16G29   29.67F
$$

MAZALL-040900-
CAPE COD AND THE ISLANDS

CITY           SKY/WX    TMP DP  RH WIND       PRES   REMARKS
FALMOUTH       LGT RAIN  43  41  93 SW25G43   29.69F
HYANNIS        LGT RAIN  38  38 100 S17G25    29.68F FOG     WCI  28
CHATHAM        LGT RAIN  39  39 100 SW16G32   29.70F VSB 3/4 WCI  30
PROVINCETOWN   CLOUDY    37  36  93 SW20G29   29.67F WCI  27
NANTUCKET      RAIN      39  38  96 S15       29.75F VSB 1/2 WCI  31
MARTHAS VNYRD  LGT RAIN  41  38  89 SW17G24   29.72F FOG
$$

MAZALL-040900-
CENTRAL AND WESTERN MASSACHUSETTS

CITY           SKY/WX    TMP DP  RH WIND       PRES   REMARKS
WORCESTER      CLOUDY    34  32  92 W24       29.61F WCI  21
FITCHBURG      CLOUDY    38  32  79 SW10G23   29.63F WCI  31
ORANGE         CLOUDY    34  32  92 S8        29.65F WCI  27
SPRINGFIELD    CLOUDY    35  32  91 S10       29.66F WCI  27
WESTFIELD      CLOUDY    36  32  85 S12       29.67F WCI  28
NORTH ADAMS    CLOUDY    35  30  82 VRB3      29.65F
PITTSFIELD     CLOUDY    32  29  88 SW14      29.63F WCI  22
$$

RIZALL-040900-
RHODE ISLAND

CITY           SKY/WX    TMP DP  RH WIND       PRES   REMARKS
PROVIDENCE     LGT RAIN  40  37  89 W22G29    29.70F WCI  30
NEWPORT        CLOUDY    39  38  96 SW9G20    29.71F
BLOCK ISLAND   CLOUDY    37  34  87 SW21G31   29.72F WCI  27
SMITHFIELD     CLOUDY    37  34  87 SW12G21   29.66F WCI  30
WESTERLY       LGT RAIN  36  35  96 SW13G20   29.74F WCI  27
$$

CTZALL-040900-
CONNECTICUT

CITY           SKY/WX    TMP DP  RH WIND       PRES   REMARKS
BRADLEY INTL   CLOUDY    37  32  82 S12       29.69F WCI  29
HARTFORD       CLOUDY    35  33  92 S8        29.72F WCI  29
BRIDGEPORT     LGT RAIN  33  32  96 SW9       29.76F WCI  25
DANBURY        CLOUDY    33  29  85 SW9       29.74F WCI  25
GROTON         LGT RAIN  35  35 100 W14       29.73F WCI  26
NEW HAVEN      MIX PCPN  33  32  96 SW6       29.75F WCI  28
CHESTER        CLOUDY    34  34 100 W10G18    29.72F FOG     WCI  26
MERIDEN        CLOUDY    34  32  92 S7        29.73F WCI  28
WILLIMANTIC    CLOUDY    37  33  85 SW3       29.71F
OXFORD         CLOUDY    34  27  75 W9        29.71F WCI  26
$$

MEZ002-015-021-024-NHZ003-005-008-011-012-014-VTZ005-008-040900-
NORTHERN NEW ENGLAND

CITY           SKY/WX    TMP DP  RH WIND       PRES   REMARKS
PORTLAND ME    CLOUDY    33  30  88 SW8       29.62F WCI  26
BANGOR ME      LGT SNOW  31  29  92 S12       29.61F FOG     WCI  22
CONCORD NH     CLOUDY    26  24  92 S5        29.62F WCI  20
MANCHESTER NH  CLOUDY    28  27  96 SW3       29.62F
NASHUA NH      CLOUDY    32  31  96 CALM      29.64F
PORTSMOUTH NH  CLOUDY    31  29  91 S6        29.61F WCI  26
JAFFREY NH     CLOUDY    32  31  96 SW12      29.59F WCI  23
KEENE NH       CLOUDY    30  28  93 CALM      29.64F
BURLINGTON VT  CLOUDY    30  24  78 S17G25    29.58R WCI  18
MT. WASHINGTON BLWGSNOW  14  14 100 W81G86      N/A  VSB 0   WCI -16
$$

NYZ052-076-040900-
EASTERN NEW YORK

CITY           SKY/WX    TMP DP  RH WIND       PRES   REMARKS
ALBANY         CLOUDY    32  27  81 S10       29.68S WCI  24
NEW YORK CITY  CLOUDY    36  32  85 SW9G22    29.75F WCI  29
$$

ANZALL-040900-
MARINE OBSERVATIONS

STATION/POSITION TIME  TEMP    WIND        PRES    VSBY  WAVE
                       AIR SEA DIR/SP/G                  HT/PER
                 (UTC) (F)     (DEG/KT/KT) (MB)    (MI)  (FT/S)
BOSTON BUOY      0750   37 36  250/  8/ 10 1004.7F
BUZZARDS BAY     0800          230/ 31/ 33 1005.9F
NANTUCKET SOUND  0750   38 31  200/ 17/ 19 1006.9F         3/ 4
MASS BAY-STELLWA 0704   36 36  230/  8/ 10   N/A    1 7/8  4/ 5
ISLE OF SHOALS   0800   33     220/ 16/ 17 1002.5F
S OF BLOCK IS    0708      37                N/A           5/ 6
$$

......................KEY.........................
  SKY/WX - SKY CONDITION/PRESENT WEATHER
  TMP    - TEMPERATURE IN FAHRENHEIT
  DWPT   - DEWPOINT IN FAHRENHEIT
  RH     - RELATIVE HUMIDITY IN PERCENT
  WIND   - DIRECTION AND SPEED IN MPH
  PRES   - MEAN SEA LEVEL PRESSURE IN INCHES OF HG
  WCI    - WIND CHILL INDEX
  VSB    - VISIBILITY IN MILES
  HX     - HEAT INDEX
  TC     - TEMPERATURE IN CELSIUS
  VRB    - VARIABLE WIND DIRECTION
  N/A    - NOT AVAILABLE


USA.gov is the U.S. government's official web portal to all federal, state and local government web resources and services.